Terug naar catalogus

OV1-9 R/B

ActiefPO
NORAD 2622·ROCKET BODY·🇺🇸 United States

Gelanceerd Dec 11, 1966 vanaf Vandenberg Space Force Base

Loading…

Volgende Passages (komende 24 uur)

TLE

VersSource: Space-Track

Epoch: Sep 14, 2026, 21:19 UTC

1 02622U 66111D   26257.88875547  .00000341  00000-0  14866-3 0  9997
2 02622  99.0933 140.0267 2219096 280.5964  55.4372 10.50062815254319

Volg OV1-9 R/B in realtime met AllMySat

Download on the App Store